Time,TemperatureF,DewpointF,PressureIn,WindDirection,WindDirectionDegrees,WindSpeedMPH,WindSpeedGustMPH,Humidity,HourlyPrecipIn,Conditions,Clouds,dailyrainin,SoftwareType,DateUTC
2013-01-04 00:03:00,13.8,11.4,30.08,West,261,4.0,5.0,90,0.00,,CLR,0.00,VWS V14.01,2013-01-04 06:03:00,
2013-01-04 00:09:00,14.2,11.8,30.08,WSW,252,0.0,3.0,90,0.00,,CLR,0.00,VWS V14.01,2013-01-04 06:09:00,
2013-01-04 00:14:00,14.4,12.0,30.08,WSW,254,1.0,3.0,90,0.00,,CLR,0.00,VWS V14.01,2013-01-04 06:14:00,
2013-01-04 00:19:00,14.3,11.7,30.08,West,277,3.0,3.0,89,0.00,,CLR,0.00,VWS V14.01,2013-01-04 06:19:00,
2013-01-04 00:24:00,14.3,11.7,30.08,West,275,4.0,4.0,89,0.00,,CLR,0.00,VWS V14.01,2013-01-04 06:24:00,
2013-01-04 00:29:00,14.4,11.8,30.08,West,272,0.0,4.0,89,0.00,,CLR,0.00,VWS V14.01,2013-01-04 06:29:00,
2013-01-04 00:35:00,14.3,11.7,30.08,West,265,0.0,3.0,89,0.00,,CLR,0.00,VWS V14.01,2013-01-04 06:35:00,
2013-01-04 00:40:00,14.3,11.7,30.07,WSW,244,0.0,3.0,89,0.00,,CLR,0.00,VWS V14.01,2013-01-04 06:40:00,
2013-01-04 00:46:00,14.4,11.8,30.07,WSW,245,3.0,4.0,89,0.00,,CLR,0.00,VWS V14.01,2013-01-04 06:46:00,
2013-01-04 00:51:00,14.4,11.8,30.07,WSW,246,0.0,3.0,89,0.00,,CLR,0.00,VWS V14.01,2013-01-04 06:51:00,
2013-01-04 00:57:00,14.5,11.9,30.07,WSW,244,2.0,2.0,89,0.00,,CLR,0.00,VWS V14.01,2013-01-04 06:57:00,
2013-01-04 01:03:00,14.6,11.9,30.06,SSW,197,2.0,4.0,89,0.00,,CLR,0.00,VWS V14.01,2013-01-04 07:03:00,
2013-01-04 01:09:00,14.7,12.1,30.05,SW,229,0.0,1.0,89,0.00,,CLR,0.00,VWS V14.01,2013-01-04 07:09:00,
2013-01-04 01:15:00,14.7,12.1,30.05,West,260,2.0,4.0,89,0.00,,CLR,0.00,VWS V14.01,2013-01-04 07:15:00,
2013-01-04 01:21:00,14.8,12.1,30.04,SSW,209,2.0,4.0,89,0.00,,CLR,0.00,VWS V14.01,2013-01-04 07:21:00,
2013-01-04 01:26:00,14.9,12.2,30.04,SW,229,0.0,3.0,89,0.00,,CLR,0.00,VWS V14.01,2013-01-04 07:26:00,
2013-01-04 01:31:00,14.9,12.2,30.04,SW,229,0.0,2.0,89,0.00,,CLR,0.00,VWS V14.01,2013-01-04 07:31:00,
2013-01-04 01:37:00,15.0,12.4,30.04,SW,236,1.0,4.0,89,0.00,,CLR,0.00,VWS V14.01,2013-01-04 07:37:00,
2013-01-04 01:43:00,15.2,12.6,30.04,WSW,248,0.0,3.0,89,0.00,,CLR,0.00,VWS V14.01,2013-01-04 07:43:00,
2013-01-04 01:48:00,15.2,12.6,30.03,WSW,249,4.0,4.0,89,0.00,,CLR,0.00,VWS V14.01,2013-01-04 07:48:00,
2013-01-04 01:54:00,15.2,12.3,30.03,WSW,249,3.0,4.0,88,0.00,,CLR,0.00,VWS V14.01,2013-01-04 07:54:00,
2013-01-04 01:59:00,15.3,12.4,30.03,WSW,249,0.0,3.0,88,0.00,,CLR,0.00,VWS V14.01,2013-01-04 07:59:00,
2013-01-04 02:04:00,15.5,12.8,30.03,WSW,249,3.0,3.0,89,0.00,,CLR,0.00,VWS V14.01,2013-01-04 08:04:00,
2013-01-04 02:09:00,15.7,13.0,30.04,West,259,3.0,7.0,89,0.00,,CLR,0.00,VWS V14.01,2013-01-04 08:09:00,
2013-01-04 02:14:00,16.1,13.2,30.04,West,267,6.0,6.0,88,0.00,,CLR,0.00,VWS V14.01,2013-01-04 08:14:00,
2013-01-04 02:19:00,16.2,13.3,30.05,West,261,4.0,6.0,88,0.00,,CLR,0.00,VWS V14.01,2013-01-04 08:19:00,
2013-01-04 02:25:00,16.2,13.0,30.05,WSW,244,2.0,6.0,87,0.00,,CLR,0.00,VWS V14.01,2013-01-04 08:25:00,
2013-01-04 02:31:00,16.4,13.2,30.05,West,262,3.0,7.0,87,0.00,,CLR,0.00,VWS V14.01,2013-01-04 08:31:00,
2013-01-04 02:36:00,16.3,13.1,30.05,WSW,248,3.0,4.0,87,0.00,,CLR,0.00,VWS V14.01,2013-01-04 08:36:00,
2013-01-04 02:42:00,16.1,12.9,30.05,WSW,256,1.0,5.0,87,0.00,,CLR,0.00,VWS V14.01,2013-01-04 08:42:00,
2013-01-04 02:47:00,16.0,12.8,30.04,SW,235,2.0,3.0,87,0.00,,CLR,0.00,VWS V14.01,2013-01-04 08:47:00,
2013-01-04 02:52:00,16.0,12.8,30.04,SW,235,2.0,4.0,87,0.00,,CLR,0.00,VWS V14.01,2013-01-04 08:52:00,
2013-01-04 02:58:00,15.9,12.7,30.04,SW,217,2.0,3.0,87,0.00,,CLR,0.00,VWS V14.01,2013-01-04 08:58:00,
2013-01-04 03:03:00,15.8,12.6,30.04,WSW,255,2.0,3.0,87,0.00,,CLR,0.00,VWS V14.01,2013-01-04 09:03:00,
2013-01-04 03:08:00,15.6,12.4,30.04,WSW,246,0.0,1.0,87,0.00,,CLR,0.00,VWS V14.01,2013-01-04 09:08:00,
2013-01-04 03:13:00,15.7,12.8,30.04,West,261,0.0,4.0,88,0.00,,CLR,0.00,VWS V14.01,2013-01-04 09:13:00,
2013-01-04 03:19:00,15.8,12.6,30.03,West,260,4.0,4.0,87,0.00,,CLR,0.00,VWS V14.01,2013-01-04 09:19:00,
2013-01-04 03:25:00,16.0,12.8,30.03,West,266,2.0,5.0,87,0.00,,CLR,0.00,VWS V14.01,2013-01-04 09:25:00,
2013-01-04 03:30:00,16.1,12.9,30.03,WSW,242,0.0,3.0,87,0.00,,CLR,0.00,VWS V14.01,2013-01-04 09:30:00,
2013-01-04 03:36:00,16.3,13.1,30.03,WSW,242,4.0,4.0,87,0.00,,CLR,0.00,VWS V14.01,2013-01-04 09:36:00,
2013-01-04 03:41:00,16.3,13.1,30.03,WSW,238,1.0,3.0,87,0.00,,CLR,0.00,VWS V14.01,2013-01-04 09:41:00,
2013-01-04 03:47:00,16.3,13.1,30.03,SW,230,0.0,3.0,87,0.00,,CLR,0.00,VWS V14.01,2013-01-04 09:47:00,
2013-01-04 03:52:00,16.2,13.0,30.02,SW,230,0.0,3.0,87,0.00,,CLR,0.00,VWS V14.01,2013-01-04 09:52:00,
2013-01-04 03:57:00,16.3,13.1,30.02,SW,230,2.0,3.0,87,0.00,,CLR,0.00,VWS V14.01,2013-01-04 09:57:00,
2013-01-04 04:03:00,16.4,13.2,30.02,SW,230,3.0,5.0,87,0.00,,CLR,0.00,VWS V14.01,2013-01-04 10:03:00,
2013-01-04 04:08:00,16.6,13.4,30.02,SW,230,1.0,4.0,87,0.00,,CLR,0.00,VWS V14.01,2013-01-04 10:08:00,
2013-01-04 04:13:00,16.6,13.4,30.02,SW,230,2.0,4.0,87,0.00,,CLR,0.00,VWS V14.01,2013-01-04 10:13:00,
2013-01-04 04:18:00,16.7,13.2,30.01,SW,230,0.0,3.0,86,0.00,,CLR,0.00,VWS V14.01,2013-01-04 10:18:00,
2013-01-04 04:23:00,16.7,13.2,30.02,SW,230,3.0,3.0,86,0.00,,CLR,0.00,VWS V14.01,2013-01-04 10:23:00,
2013-01-04 04:28:00,16.8,13.6,30.01,SW,232,2.0,2.0,87,0.00,,CLR,0.00,VWS V14.01,2013-01-04 10:28:00,
2013-01-04 04:33:00,16.9,13.7,30.00,SW,236,0.0,4.0,87,0.00,,CLR,0.00,VWS V14.01,2013-01-04 10:33:00,
2013-01-04 04:38:00,17.1,13.9,30.00,SW,215,1.0,4.0,87,0.00,,CLR,0.00,VWS V14.01,2013-01-04 10:38:00,
2013-01-04 04:44:00,17.5,14.3,30.00,SW,225,2.0,4.0,87,0.00,,CLR,0.00,VWS V14.01,2013-01-04 10:44:00,
2013-01-04 04:49:00,17.6,14.1,30.00,SW,227,0.0,3.0,86,0.00,,CLR,0.00,VWS V14.01,2013-01-04 10:49:00,
2013-01-04 04:54:00,17.7,14.2,30.00,SW,228,0.0,2.0,86,0.00,,CLR,0.00,VWS V14.01,2013-01-04 10:54:00,
2013-01-04 05:00:00,18.0,14.5,30.01,WSW,256,3.0,8.0,86,0.00,,CLR,0.00,VWS V14.01,2013-01-04 11:00:00,
2013-01-04 05:06:00,18.3,14.6,30.01,WSW,254,3.0,4.0,85,0.00,,CLR,0.00,VWS V14.01,2013-01-04 11:06:00,
2013-01-04 05:11:00,18.4,14.6,30.01,West,263,2.0,4.0,85,0.00,,CLR,0.00,VWS V14.01,2013-01-04 11:11:00,
2013-01-04 05:16:00,18.5,14.8,30.01,West,263,0.0,3.0,85,0.00,,CLR,0.00,VWS V14.01,2013-01-04 11:16:00,
2013-01-04 05:21:00,18.5,14.5,30.01,WSW,257,4.0,5.0,84,0.00,,CLR,0.00,VWS V14.01,2013-01-04 11:21:00,
2013-01-04 05:27:00,18.6,14.6,30.01,West,259,3.0,4.0,84,0.00,,CLR,0.00,VWS V14.01,2013-01-04 11:27:00,
2013-01-04 05:32:00,18.6,14.6,30.01,West,259,3.0,5.0,84,0.00,,CLR,0.00,VWS V14.01,2013-01-04 11:32:00,
2013-01-04 05:37:00,18.6,14.6,30.01,West,271,1.0,5.0,84,0.00,,CLR,0.00,VWS V14.01,2013-01-04 11:37:00,
2013-01-04 05:43:00,18.6,14.6,30.01,West,266,3.0,4.0,84,0.00,,CLR,0.00,VWS V14.01,2013-01-04 11:43:00,
2013-01-04 05:48:00,18.4,14.4,30.01,West,260,6.0,8.0,84,0.00,,CLR,0.00,VWS V14.01,2013-01-04 11:48:00,
2013-01-04 05:53:00,18.3,14.3,30.01,WSW,257,5.0,6.0,84,0.00,,CLR,0.00,VWS V14.01,2013-01-04 11:53:00,
2013-01-04 05:58:00,18.2,14.2,30.01,WSW,251,4.0,9.0,84,0.00,,CLR,0.00,VWS V14.01,2013-01-04 11:58:00,
2013-01-04 06:04:00,18.2,14.2,30.01,WSW,246,4.0,7.0,84,0.00,,CLR,0.00,VWS V14.01,2013-01-04 12:04:00,
2013-01-04 06:09:00,18.2,14.2,30.01,West,265,4.0,9.0,84,0.00,,CLR,0.00,VWS V14.01,2013-01-04 12:09:00,
2013-01-04 06:14:00,18.3,14.3,30.01,West,265,4.0,8.0,84,0.00,,CLR,0.00,VWS V14.01,2013-01-04 12:14:00,
2013-01-04 06:19:00,18.2,14.2,30.01,WSW,258,5.0,8.0,84,0.00,,CLR,0.00,VWS V14.01,2013-01-04 12:19:00,
2013-01-04 06:24:00,18.2,14.2,30.02,West,259,3.0,4.0,84,0.00,,CLR,0.00,VWS V14.01,2013-01-04 12:24:00,
2013-01-04 06:29:00,18.2,14.2,30.02,West,271,5.0,7.0,84,0.00,,CLR,0.00,VWS V14.01,2013-01-04 12:29:00,
2013-01-04 06:34:00,18.2,14.2,30.02,West,268,3.0,5.0,84,0.00,,CLR,0.00,VWS V14.01,2013-01-04 12:34:00,
2013-01-04 06:39:00,18.2,14.2,30.02,WSW,258,2.0,5.0,84,0.00,,CLR,0.00,VWS V14.01,2013-01-04 12:39:00,
2013-01-04 06:45:00,18.3,14.3,30.02,WSW,255,4.0,5.0,84,0.00,,CLR,0.00,VWS V14.01,2013-01-04 12:45:00,
2013-01-04 06:51:00,18.4,14.4,30.02,WSW,257,5.0,5.0,84,0.00,,CLR,0.00,VWS V14.01,2013-01-04 12:51:00,
2013-01-04 06:56:00,18.6,14.6,30.03,WSW,246,6.0,6.0,84,0.00,,CLR,0.00,VWS V14.01,2013-01-04 12:56:00,
2013-01-04 07:01:00,18.9,14.6,30.03,WSW,247,4.0,9.0,83,0.00,,CLR,0.00,VWS V14.01,2013-01-04 13:01:00,
2013-01-04 07:07:00,19.3,15.0,30.03,WSW,257,5.0,7.0,83,0.00,,CLR,0.00,VWS V14.01,2013-01-04 13:07:00,
2013-01-04 07:12:00,19.4,14.8,30.03,West,259,4.0,9.0,82,0.00,,CLR,0.00,VWS V14.01,2013-01-04 13:12:00,
2013-01-04 07:17:00,19.5,14.9,30.02,West,281,3.0,6.0,82,0.00,,CLR,0.00,VWS V14.01,2013-01-04 13:17:00,
2013-01-04 07:23:00,19.5,14.9,30.03,WSW,255,3.0,5.0,82,0.00,,CLR,0.00,VWS V14.01,2013-01-04 13:23:00,
2013-01-04 07:28:00,19.4,14.8,30.03,West,261,3.0,9.0,82,0.00,,CLR,0.00,VWS V14.01,2013-01-04 13:28:00,
2013-01-04 07:33:00,19.4,14.8,30.03,WSW,249,4.0,6.0,82,0.00,,CLR,0.00,VWS V14.01,2013-01-04 13:33:00,
2013-01-04 07:39:00,19.5,14.9,30.03,West,262,3.0,7.0,82,0.00,,CLR,0.00,VWS V14.01,2013-01-04 13:39:00,
2013-01-04 07:45:00,19.6,15.0,30.03,West,266,3.0,5.0,82,0.00,,CLR,0.00,VWS V14.01,2013-01-04 13:45:00,
2013-01-04 07:50:00,19.7,14.8,30.03,WSW,254,4.0,7.0,81,0.00,,CLR,0.00,VWS V14.01,2013-01-04 13:50:00,
2013-01-04 07:56:00,19.7,14.8,30.03,West,259,3.0,5.0,81,0.00,,CLR,0.00,VWS V14.01,2013-01-04 13:56:00,
2013-01-04 08:01:00,19.5,14.6,30.03,West,266,4.0,6.0,81,0.00,,CLR,0.00,VWS V14.01,2013-01-04 14:01:00,
2013-01-04 08:06:00,19.5,14.6,30.03,West,261,4.0,6.0,81,0.00,,CLR,0.00,VWS V14.01,2013-01-04 14:06:00,
2013-01-04 08:12:00,19.6,14.7,30.03,WSW,254,2.0,6.0,81,0.00,,CLR,0.00,VWS V14.01,2013-01-04 14:12:00,
2013-01-04 08:17:00,19.8,14.9,30.03,West,262,4.0,7.0,81,0.00,,CLR,0.00,VWS V14.01,2013-01-04 14:17:00,
2013-01-04 08:22:00,19.9,15.0,30.03,West,269,2.0,6.0,81,0.00,,CLR,0.00,VWS V14.01,2013-01-04 14:22:00,
2013-01-04 08:27:00,20.0,14.8,30.03,West,267,2.0,9.0,80,0.00,,CLR,0.00,VWS V14.01,2013-01-04 14:27:00,
2013-01-04 08:32:00,20.2,15.0,30.03,West,269,1.0,5.0,80,0.00,,CLR,0.00,VWS V14.01,2013-01-04 14:32:00,
2013-01-04 08:37:00,20.2,15.0,30.03,West,263,2.0,4.0,80,0.00,,CLR,0.00,VWS V14.01,2013-01-04 14:37:00,
2013-01-04 08:42:00,20.3,15.1,30.03,West,264,3.0,5.0,80,0.00,,CLR,0.00,VWS V14.01,2013-01-04 14:42:00,
2013-01-04 08:48:00,20.4,15.2,30.03,West,273,5.0,5.0,80,0.00,,CLR,0.00,VWS V14.01,2013-01-04 14:48:00,
2013-01-04 08:53:00,20.4,14.9,30.04,West,273,6.0,6.0,79,0.00,,CLR,0.00,VWS V14.01,2013-01-04 14:53:00,
2013-01-04 08:59:00,20.4,14.9,30.04,West,272,4.0,6.0,79,0.00,,CLR,0.00,VWS V14.01,2013-01-04 14:59:00,
2013-01-04 09:05:00,20.4,14.9,30.04,West,277,6.0,8.0,79,0.00,,CLR,0.00,VWS V14.01,2013-01-04 15:05:00,
2013-01-04 09:10:00,20.4,14.9,30.05,West,267,6.0,7.0,79,0.00,,CLR,0.00,VWS V14.01,2013-01-04 15:10:00,
2013-01-04 09:15:00,20.4,14.9,30.05,West,262,5.0,6.0,79,0.00,,CLR,0.00,VWS V14.01,2013-01-04 15:15:00,
2013-01-04 09:20:00,20.3,14.8,30.05,West,265,5.0,6.0,79,0.00,,CLR,0.00,VWS V14.01,2013-01-04 15:20:00,
2013-01-04 09:25:00,20.3,14.8,30.05,West,269,4.0,6.0,79,0.00,,CLR,0.00,VWS V14.01,2013-01-04 15:25:00,
2013-01-04 09:30:00,20.3,14.8,30.05,West,266,4.0,5.0,79,0.00,,CLR,0.00,VWS V14.01,2013-01-04 15:30:00,
2013-01-04 09:35:00,20.4,14.9,30.05,West,267,5.0,5.0,79,0.00,,CLR,0.00,VWS V14.01,2013-01-04 15:35:00,
2013-01-04 09:40:00,20.5,15.0,30.06,West,270,4.0,5.0,79,0.00,,CLR,0.00,VWS V14.01,2013-01-04 15:40:00,
2013-01-04 09:46:00,20.6,15.1,30.06,WSW,239,3.0,6.0,79,0.00,,CLR,0.00,VWS V14.01,2013-01-04 15:46:00,
2013-01-04 09:51:00,20.8,15.3,30.06,West,271,4.0,4.0,79,0.00,,CLR,0.00,VWS V14.01,2013-01-04 15:51:00,
2013-01-04 09:57:00,20.9,15.4,30.06,West,279,3.0,5.0,79,0.00,,CLR,0.00,VWS V14.01,2013-01-04 15:57:00,
2013-01-04 10:02:00,21.1,15.3,30.07,WSW,256,4.0,5.0,78,0.00,,CLR,0.00,VWS V14.01,2013-01-04 16:02:00,
2013-01-04 10:07:00,21.3,15.5,30.07,West,267,4.0,7.0,78,0.00,,CLR,0.00,VWS V14.01,2013-01-04 16:07:00,
2013-01-04 10:13:00,21.5,15.7,30.07,West,267,4.0,5.0,78,0.00,,CLR,0.00,VWS V14.01,2013-01-04 16:13:00,
2013-01-04 10:18:00,21.8,15.7,30.07,West,281,4.0,7.0,77,0.00,,CLR,0.00,VWS V14.01,2013-01-04 16:18:00,
2013-01-04 10:23:00,22.0,15.9,30.07,West,267,3.0,5.0,77,0.00,,CLR,0.00,VWS V14.01,2013-01-04 16:23:00,
2013-01-04 10:29:00,22.1,16.0,30.07,West,268,7.0,7.0,77,0.00,,CLR,0.00,VWS V14.01,2013-01-04 16:29:00,
2013-01-04 10:34:00,22.4,16.3,30.07,SSW,213,6.0,6.0,77,0.00,,CLR,0.00,VWS V14.01,2013-01-04 16:34:00,
2013-01-04 10:39:00,22.6,16.2,30.08,West,271,5.0,6.0,76,0.00,,CLR,0.00,VWS V14.01,2013-01-04 16:39:00,
2013-01-04 10:45:00,23.1,16.4,30.07,West,265,3.0,6.0,75,0.00,,CLR,0.00,VWS V14.01,2013-01-04 16:45:00,
2013-01-04 10:50:00,23.3,16.6,30.07,West,267,2.0,6.0,75,0.00,,CLR,0.00,VWS V14.01,2013-01-04 16:50:00,
2013-01-04 10:56:00,23.6,16.9,30.07,West,263,3.0,7.0,75,0.00,,CLR,0.00,VWS V14.01,2013-01-04 16:56:00,
2013-01-04 11:01:00,23.7,16.6,30.07,West,269,5.0,5.0,74,0.00,,CLR,0.00,VWS V14.01,2013-01-04 17:01:00,
2013-01-04 11:06:00,24.0,16.9,30.07,West,260,4.0,5.0,74,0.00,,CLR,0.00,VWS V14.01,2013-01-04 17:06:00,
2013-01-04 11:12:00,24.2,17.1,30.07,West,272,5.0,5.0,74,0.00,,CLR,0.00,VWS V14.01,2013-01-04 17:12:00,
2013-01-04 11:17:00,24.4,17.0,30.07,West,269,3.0,5.0,73,0.00,,CLR,0.00,VWS V14.01,2013-01-04 17:17:00,
2013-01-04 11:23:00,24.6,17.2,30.07,West,261,5.0,5.0,73,0.00,,CLR,0.00,VWS V14.01,2013-01-04 17:23:00,
2013-01-04 11:28:00,24.9,17.2,30.07,West,275,2.0,5.0,72,0.00,,CLR,0.00,VWS V14.01,2013-01-04 17:28:00,
2013-01-04 11:34:00,25.2,17.5,30.07,WSW,250,3.0,4.0,72,0.00,,CLR,0.00,VWS V14.01,2013-01-04 17:34:00,
2013-01-04 11:39:00,25.3,17.5,30.08,WSW,242,3.0,5.0,72,0.00,,CLR,0.00,VWS V14.01,2013-01-04 17:39:00,
2013-01-04 11:45:00,25.4,17.3,30.08,West,278,2.0,7.0,71,0.00,,CLR,0.00,VWS V14.01,2013-01-04 17:45:00,
2013-01-04 11:50:00,25.4,17.3,30.08,West,267,4.0,8.0,71,0.00,,CLR,0.00,VWS V14.01,2013-01-04 17:50:00,
2013-01-04 11:55:00,25.4,17.3,30.07,West,267,5.0,5.0,71,0.00,,CLR,0.00,VWS V14.01,2013-01-04 17:55:00,
2013-01-04 12:00:00,25.6,17.8,30.08,West,271,4.0,4.0,72,0.00,,CLR,0.00,VWS V14.01,2013-01-04 18:00:00,
2013-01-04 12:06:00,25.7,17.6,30.08,WSW,247,4.0,5.0,71,0.00,,CLR,0.00,VWS V14.01,2013-01-04 18:06:00,
2013-01-04 12:11:00,25.8,17.7,30.08,West,265,2.0,9.0,71,0.00,,CLR,0.00,VWS V14.01,2013-01-04 18:11:00,
2013-01-04 12:16:00,26.0,17.6,30.07,West,279,4.0,5.0,70,0.00,,CLR,0.00,VWS V14.01,2013-01-04 18:16:00,
2013-01-04 12:22:00,26.1,18.0,30.08,West,261,4.0,6.0,71,0.00,,CLR,0.00,VWS V14.01,2013-01-04 18:22:00,
2013-01-04 12:27:00,26.1,18.0,30.07,West,267,3.0,4.0,71,0.00,,CLR,0.00,VWS V14.01,2013-01-04 18:27:00,
2013-01-04 12:32:00,26.3,18.2,30.07,West,274,4.0,4.0,71,0.00,,CLR,0.00,VWS V14.01,2013-01-04 18:32:00,
2013-01-04 12:38:00,26.7,18.6,30.07,WSW,242,4.0,7.0,71,0.00,,CLR,0.00,VWS V14.01,2013-01-04 18:38:00,
2013-01-04 12:44:00,27.0,18.5,30.07,WSW,254,6.0,8.0,70,0.00,,CLR,0.00,VWS V14.01,2013-01-04 18:44:00,
2013-01-04 12:49:00,27.0,18.5,30.07,West,273,4.0,5.0,70,0.00,,CLR,0.00,VWS V14.01,2013-01-04 18:49:00,
2013-01-04 12:54:00,27.1,18.3,30.06,West,269,3.0,3.0,69,0.00,,CLR,0.00,VWS V14.01,2013-01-04 18:54:00,
2013-01-04 12:59:00,27.2,18.4,30.06,West,272,2.0,6.0,69,0.00,,CLR,0.00,VWS V14.01,2013-01-04 18:59:00,
2013-01-04 13:05:00,27.1,18.6,30.06,West,265,6.0,6.0,70,0.00,,CLR,0.00,VWS V14.01,2013-01-04 19:05:00,
2013-01-04 13:11:00,27.2,18.7,30.06,West,273,4.0,6.0,70,0.00,,CLR,0.00,VWS V14.01,2013-01-04 19:11:00,
2013-01-04 13:16:00,27.2,18.7,30.06,West,278,4.0,7.0,70,0.00,,CLR,0.00,VWS V14.01,2013-01-04 19:16:00,
2013-01-04 13:21:00,27.3,18.5,30.06,West,269,3.0,5.0,69,0.00,,CLR,0.00,VWS V14.01,2013-01-04 19:21:00,
2013-01-04 13:27:00,27.4,18.6,30.06,West,273,5.0,6.0,69,0.00,,CLR,0.00,VWS V14.01,2013-01-04 19:27:00,
2013-01-04 13:33:00,27.5,19.0,30.06,West,269,4.0,6.0,70,0.00,,CLR,0.00,VWS V14.01,2013-01-04 19:33:00,
2013-01-04 13:39:00,27.6,19.1,30.06,West,276,1.0,3.0,70,0.00,,CLR,0.00,VWS V14.01,2013-01-04 19:39:00,
2013-01-04 13:44:00,27.9,19.1,30.06,WSW,252,4.0,7.0,69,0.00,,CLR,0.00,VWS V14.01,2013-01-04 19:44:00,
2013-01-04 13:49:00,28.1,19.3,30.06,West,277,2.0,5.0,69,0.00,,CLR,0.00,VWS V14.01,2013-01-04 19:49:00,
2013-01-04 13:54:00,28.4,19.2,30.06,WNW,288,2.0,4.0,68,0.00,,CLR,0.00,VWS V14.01,2013-01-04 19:54:00,
2013-01-04 13:59:00,28.5,19.0,30.06,WSW,246,0.0,5.0,67,0.00,,CLR,0.00,VWS V14.01,2013-01-04 19:59:00,
2013-01-04 14:05:00,28.7,19.1,30.06,WSW,250,0.0,2.0,67,0.00,,CLR,0.00,VWS V14.01,2013-01-04 20:05:00,
2013-01-04 14:10:00,28.9,19.0,30.06,West,261,3.0,5.0,66,0.00,,CLR,0.00,VWS V14.01,2013-01-04 20:10:00,
2013-01-04 14:15:00,28.6,18.7,30.06,WSW,255,3.0,7.0,66,0.00,,CLR,0.00,VWS V14.01,2013-01-04 20:15:00,
2013-01-04 14:20:00,28.4,18.9,30.06,West,259,3.0,5.0,67,0.00,,CLR,0.00,VWS V14.01,2013-01-04 20:20:00,
2013-01-04 14:25:00,28.3,18.8,30.06,WSW,252,5.0,5.0,67,0.00,,CLR,0.00,VWS V14.01,2013-01-04 20:25:00,
2013-01-04 14:30:00,28.2,19.0,30.06,WSW,254,0.0,5.0,68,0.00,,CLR,0.00,VWS V14.01,2013-01-04 20:30:00,
2013-01-04 14:35:00,28.1,19.3,30.06,West,267,2.0,4.0,69,0.00,,CLR,0.00,VWS V14.01,2013-01-04 20:35:00,
2013-01-04 14:40:00,28.2,19.4,30.06,West,261,1.0,6.0,69,0.00,,CLR,0.00,VWS V14.01,2013-01-04 20:40:00,
2013-01-04 14:45:00,28.1,18.9,30.07,West,273,0.0,3.0,68,0.00,,CLR,0.00,VWS V14.01,2013-01-04 20:45:00,
2013-01-04 14:51:00,28.0,19.2,30.07,West,260,1.0,4.0,69,0.00,,CLR,0.00,VWS V14.01,2013-01-04 20:51:00,
2013-01-04 14:57:00,28.0,19.2,30.07,West,272,2.0,2.0,69,0.00,,CLR,0.00,VWS V14.01,2013-01-04 20:57:00,
2013-01-04 15:02:00,27.9,19.1,30.07,WSW,248,0.0,3.0,69,0.00,,CLR,0.00,VWS V14.01,2013-01-04 21:02:00,
2013-01-04 15:07:00,27.8,19.3,30.07,SW,236,0.0,2.0,70,0.00,,CLR,0.00,VWS V14.01,2013-01-04 21:07:00,
2013-01-04 15:12:00,27.6,19.1,30.07,West,280,2.0,4.0,70,0.00,,CLR,0.00,VWS V14.01,2013-01-04 21:12:00,
2013-01-04 15:18:00,27.6,19.4,30.08,West,261,0.0,0.0,71,0.00,,CLR,0.00,VWS V14.01,2013-01-04 21:18:00,
2013-01-04 15:23:00,27.4,19.2,30.08,West,263,2.0,3.0,71,0.00,,CLR,0.00,VWS V14.01,2013-01-04 21:23:00,
2013-01-04 15:28:00,27.3,19.1,30.08,West,266,1.0,4.0,71,0.00,,CLR,0.00,VWS V14.01,2013-01-04 21:28:00,
2013-01-04 15:34:00,27.0,18.9,30.08,West,260,0.0,3.0,71,0.00,,CLR,0.00,VWS V14.01,2013-01-04 21:34:00,
2013-01-04 15:39:00,27.0,18.9,30.08,West,264,1.0,5.0,71,0.00,,CLR,0.00,VWS V14.01,2013-01-04 21:39:00,
2013-01-04 15:45:00,26.9,18.8,30.08,WSW,252,0.0,4.0,71,0.00,,CLR,0.00,VWS V14.01,2013-01-04 21:45:00,
2013-01-04 15:50:00,26.8,18.7,30.08,West,279,2.0,3.0,71,0.00,,CLR,0.00,VWS V14.01,2013-01-04 21:50:00,
2013-01-04 15:55:00,26.6,18.8,30.09,West,279,2.0,3.0,72,0.00,,CLR,0.00,VWS V14.01,2013-01-04 21:55:00,
2013-01-04 16:01:00,26.1,18.3,30.09,West,265,2.0,5.0,72,0.00,,CLR,0.00,VWS V14.01,2013-01-04 22:01:00,
2013-01-04 16:06:00,25.9,18.1,30.09,West,274,1.0,4.0,72,0.00,,CLR,0.00,VWS V14.01,2013-01-04 22:06:00,
2013-01-04 16:11:00,25.7,18.3,30.09,West,271,0.0,0.0,73,0.00,,CLR,0.00,VWS V14.01,2013-01-04 22:11:00,
2013-01-04 16:17:00,25.4,18.0,30.10,West,271,0.0,0.0,73,0.00,,CLR,0.00,VWS V14.01,2013-01-04 22:17:00,
2013-01-04 16:23:00,25.1,17.7,30.10,WSW,254,0.0,3.0,73,0.00,,CLR,0.00,VWS V14.01,2013-01-04 22:23:00,
2013-01-04 16:28:00,24.8,17.7,30.09,WSW,255,0.0,3.0,74,0.00,,CLR,0.00,VWS V14.01,2013-01-04 22:28:00,
2013-01-04 16:34:00,24.4,17.3,30.09,West,259,2.0,2.0,74,0.00,,CLR,0.00,VWS V14.01,2013-01-04 22:34:00,
2013-01-04 16:40:00,24.1,17.3,30.09,West,259,0.0,0.0,75,0.00,,CLR,0.00,VWS V14.01,2013-01-04 22:40:00,
2013-01-04 16:45:00,24.0,17.2,30.09,West,259,0.0,0.0,75,0.00,,CLR,0.00,VWS V14.01,2013-01-04 22:45:00,
2013-01-04 16:50:00,23.7,17.0,30.10,West,259,0.0,0.0,75,0.00,,CLR,0.00,VWS V14.01,2013-01-04 22:50:00,
2013-01-04 16:55:00,23.4,16.7,30.09,West,259,1.0,1.0,75,0.00,,CLR,0.00,VWS V14.01,2013-01-04 22:55:00,
2013-01-04 17:00:00,23.0,16.6,30.09,West,259,0.0,0.0,76,0.00,,CLR,0.00,VWS V14.01,2013-01-04 23:00:00,
2013-01-04 17:05:00,22.6,16.2,30.09,West,259,0.0,0.0,76,0.00,,CLR,0.00,VWS V14.01,2013-01-04 23:05:00,
2013-01-04 17:10:00,22.1,16.0,30.09,West,259,0.0,0.0,77,0.00,,CLR,0.00,VWS V14.01,2013-01-04 23:10:00,
2013-01-04 17:15:00,21.7,15.6,30.09,West,259,0.0,0.0,77,0.00,,CLR,0.00,VWS V14.01,2013-01-04 23:15:00,
2013-01-04 17:21:00,21.3,15.5,30.09,West,259,0.0,0.0,78,0.00,,CLR,0.00,VWS V14.01,2013-01-04 23:21:00,
2013-01-04 17:27:00,20.4,14.4,30.09,West,259,0.0,0.0,77,0.00,,CLR,0.00,VWS V14.01,2013-01-04 23:27:00,
2013-01-04 17:32:00,20.0,14.3,30.09,West,259,0.0,0.0,78,0.00,,CLR,0.00,VWS V14.01,2013-01-04 23:32:00,
2013-01-04 17:37:00,19.6,14.2,30.10,West,259,0.0,0.0,79,0.00,,CLR,0.00,VWS V14.01,2013-01-04 23:37:00,
2013-01-04 17:43:00,19.3,14.1,30.10,West,259,0.0,0.0,80,0.00,,CLR,0.00,VWS V14.01,2013-01-04 23:43:00,
2013-01-04 17:48:00,19.0,14.1,30.10,West,259,0.0,0.0,81,0.00,,CLR,0.00,VWS V14.01,2013-01-04 23:48:00,
2013-01-04 17:53:00,18.8,13.9,30.10,West,259,0.0,0.0,81,0.00,,CLR,0.00,VWS V14.01,2013-01-04 23:53:00,
2013-01-04 17:59:00,18.6,14.0,30.10,West,259,0.0,0.0,82,0.00,,CLR,0.00,VWS V14.01,2013-01-04 23:59:00,
2013-01-04 18:04:00,18.3,13.7,30.10,West,259,0.0,0.0,82,0.00,,CLR,0.00,VWS V14.01,2013-01-05 00:04:00,
2013-01-04 18:09:00,18.0,13.2,30.10,West,259,0.0,0.0,81,0.00,,CLR,0.00,VWS V14.01,2013-01-05 00:09:00,
2013-01-04 18:15:00,17.5,12.9,30.10,West,259,0.0,0.0,82,0.00,,CLR,0.00,VWS V14.01,2013-01-05 00:15:00,
2013-01-04 18:20:00,17.2,12.7,30.09,West,259,0.0,0.0,82,0.00,,CLR,0.00,VWS V14.01,2013-01-05 00:20:00,
2013-01-04 18:25:00,16.9,12.4,30.09,West,259,0.0,0.0,82,0.00,,CLR,0.00,VWS V14.01,2013-01-05 00:25:00,
2013-01-04 18:30:00,16.6,12.4,30.09,West,259,0.0,0.0,83,0.00,,CLR,0.00,VWS V14.01,2013-01-05 00:30:00,
2013-01-04 18:35:00,16.3,12.1,30.10,West,259,0.0,0.0,83,0.00,,CLR,0.00,VWS V14.01,2013-01-05 00:35:00,
2013-01-04 18:40:00,15.9,11.7,30.10,West,259,0.0,0.0,83,0.00,,CLR,0.00,VWS V14.01,2013-01-05 00:40:00,
2013-01-04 18:45:00,15.6,11.4,30.10,West,259,0.0,0.0,83,0.00,,CLR,0.00,VWS V14.01,2013-01-05 00:45:00,
2013-01-04 18:50:00,15.3,11.1,30.10,West,259,0.0,0.0,83,0.00,,CLR,0.00,VWS V14.01,2013-01-05 00:50:00,
2013-01-04 18:55:00,15.0,11.1,30.10,West,259,0.0,0.0,84,0.00,,CLR,0.00,VWS V14.01,2013-01-05 00:55:00,
2013-01-04 19:00:00,14.7,10.8,30.10,West,259,0.0,0.0,84,0.00,,CLR,0.00,VWS V14.01,2013-01-05 01:00:00,
2013-01-04 19:05:00,14.5,10.6,30.10,West,259,0.0,0.0,84,0.00,,CLR,0.00,VWS V14.01,2013-01-05 01:05:00,
2013-01-04 19:10:00,14.2,10.3,30.10,West,259,0.0,0.0,84,0.00,,CLR,0.00,VWS V14.01,2013-01-05 01:10:00,
2013-01-04 19:15:00,14.0,10.3,30.10,West,259,0.0,0.0,85,0.00,,CLR,0.00,VWS V14.01,2013-01-05 01:15:00,
2013-01-04 19:20:00,13.8,10.1,30.10,West,259,0.0,0.0,85,0.00,,CLR,0.00,VWS V14.01,2013-01-05 01:20:00,
2013-01-04 19:25:00,13.7,10.3,30.10,West,259,0.0,0.0,86,0.00,,CLR,0.00,VWS V14.01,2013-01-05 01:25:00,
2013-01-04 19:31:00,13.4,10.0,30.10,West,259,0.0,0.0,86,0.00,,CLR,0.00,VWS V14.01,2013-01-05 01:31:00,
2013-01-04 19:37:00,13.1,9.7,30.10,West,259,0.0,0.0,86,0.00,,CLR,0.00,VWS V14.01,2013-01-05 01:37:00,
2013-01-04 19:43:00,12.8,9.4,30.10,West,259,0.0,0.0,86,0.00,,CLR,0.00,VWS V14.01,2013-01-05 01:43:00,
2013-01-04 19:48:00,12.7,9.3,30.10,West,259,0.0,0.0,86,0.00,,CLR,0.00,VWS V14.01,2013-01-05 01:48:00,
2013-01-04 19:53:00,12.5,9.1,30.10,West,259,0.0,0.0,86,0.00,,CLR,0.00,VWS V14.01,2013-01-05 01:53:00,
2013-01-04 19:58:00,12.4,9.3,30.10,West,259,0.0,2.0,87,0.00,,CLR,0.00,VWS V14.01,2013-01-05 01:58:00,
2013-01-04 20:03:00,13.4,11.0,30.10,West,259,0.0,0.0,90,0.00,,CLR,0.00,VWS V14.01,2013-01-05 02:03:00,
2013-01-04 20:08:00,13.1,10.2,30.10,West,259,0.0,0.0,88,0.00,,CLR,0.00,VWS V14.01,2013-01-05 02:08:00,
2013-01-04 20:14:00,12.8,9.9,30.10,West,259,0.0,0.0,88,0.00,,CLR,0.00,VWS V14.01,2013-01-05 02:14:00,
2013-01-04 20:20:00,12.5,9.4,30.10,SW,224,0.0,0.0,87,0.00,,CLR,0.00,VWS V14.01,2013-01-05 02:20:00,
2013-01-04 20:25:00,12.1,9.0,30.10,SW,224,0.0,0.0,87,0.00,,CLR,0.00,VWS V14.01,2013-01-05 02:25:00,
2013-01-04 20:30:00,11.8,8.7,30.10,SW,224,0.0,0.0,87,0.00,,CLR,0.00,VWS V14.01,2013-01-05 02:30:00,
2013-01-04 20:35:00,11.7,8.8,30.10,SW,224,0.0,1.0,88,0.00,,CLR,0.00,VWS V14.01,2013-01-05 02:35:00,
2013-01-04 20:40:00,11.5,8.6,30.10,SW,223,1.0,2.0,88,0.00,,CLR,0.00,VWS V14.01,2013-01-05 02:40:00,
2013-01-04 20:45:00,11.4,8.8,30.10,SW,223,0.0,0.0,89,0.00,,CLR,0.00,VWS V14.01,2013-01-05 02:45:00,
2013-01-04 20:51:00,11.7,9.3,30.10,SSW,213,0.0,1.0,90,0.00,,CLR,0.00,VWS V14.01,2013-01-05 02:51:00,
2013-01-04 20:56:00,12.1,10.0,30.09,South,184,0.0,0.0,91,0.00,,CLR,0.00,VWS V14.01,2013-01-05 02:56:00,
2013-01-04 21:01:00,12.3,10.2,30.10,South,184,0.0,0.0,91,0.00,,CLR,0.00,VWS V14.01,2013-01-05 03:01:00,
2013-01-04 21:06:00,12.3,9.9,30.10,South,184,0.0,0.0,90,0.00,,CLR,0.00,VWS V14.01,2013-01-05 03:06:00,
2013-01-04 21:11:00,12.2,9.8,30.10,South,184,0.0,0.0,90,0.00,,CLR,0.00,VWS V14.01,2013-01-05 03:11:00,
2013-01-04 21:17:00,12.2,9.8,30.10,South,184,0.0,0.0,90,0.00,,CLR,0.00,VWS V14.01,2013-01-05 03:17:00,
2013-01-04 21:22:00,12.6,10.5,30.10,South,184,0.0,0.0,91,0.00,,CLR,0.00,VWS V14.01,2013-01-05 03:22:00,
2013-01-04 21:28:00,13.5,11.6,30.10,South,184,0.0,0.0,92,0.00,,CLR,0.00,VWS V14.01,2013-01-05 03:28:00,
2013-01-04 21:33:00,14.1,12.2,30.10,South,184,0.0,0.0,92,0.00,,CLR,0.00,VWS V14.01,2013-01-05 03:33:00,
2013-01-04 21:38:00,14.5,12.6,30.10,South,184,0.0,0.0,92,0.00,,CLR,0.00,VWS V14.01,2013-01-05 03:38:00,
2013-01-04 21:44:00,14.6,12.7,30.10,South,184,0.0,0.0,92,0.00,,CLR,0.00,VWS V14.01,2013-01-05 03:44:00,
2013-01-04 21:49:00,14.5,12.4,30.09,South,184,0.0,0.0,91,0.00,,CLR,0.00,VWS V14.01,2013-01-05 03:49:00,
2013-01-04 21:55:00,14.6,12.7,30.09,South,184,0.0,0.0,92,0.00,,CLR,0.00,VWS V14.01,2013-01-05 03:55:00,
2013-01-04 22:01:00,14.5,12.4,30.09,South,184,0.0,0.0,91,0.00,,CLR,0.00,VWS V14.01,2013-01-05 04:01:00,
2013-01-04 22:07:00,14.5,12.4,30.09,South,184,0.0,0.0,91,0.00,,CLR,0.00,VWS V14.01,2013-01-05 04:07:00,
2013-01-04 22:13:00,14.5,12.4,30.09,South,184,0.0,0.0,91,0.00,,CLR,0.00,VWS V14.01,2013-01-05 04:13:00,
2013-01-04 22:18:00,14.4,12.3,30.08,South,184,0.0,0.0,91,0.00,,CLR,0.00,VWS V14.01,2013-01-05 04:18:00,
2013-01-04 22:24:00,14.3,12.2,30.08,South,184,0.0,0.0,91,0.00,,CLR,0.00,VWS V14.01,2013-01-05 04:24:00,
2013-01-04 22:29:00,14.0,11.9,30.08,South,184,0.0,0.0,91,0.00,,CLR,0.00,VWS V14.01,2013-01-05 04:29:00,
2013-01-04 22:34:00,13.9,11.8,30.08,South,184,0.0,0.0,91,0.00,,CLR,0.00,VWS V14.01,2013-01-05 04:34:00,
2013-01-04 22:39:00,13.7,11.6,30.08,South,184,0.0,0.0,91,0.00,,CLR,0.00,VWS V14.01,2013-01-05 04:39:00,
2013-01-04 22:44:00,13.6,11.5,30.07,South,184,0.0,0.0,91,0.00,,CLR,0.00,VWS V14.01,2013-01-05 04:44:00,
2013-01-04 22:49:00,13.5,11.4,30.07,South,184,0.0,0.0,91,0.00,,CLR,0.00,VWS V14.01,2013-01-05 04:49:00,
2013-01-04 22:55:00,13.5,11.4,30.07,South,184,0.0,0.0,91,0.00,,CLR,0.00,VWS V14.01,2013-01-05 04:55:00,
2013-01-04 23:00:00,13.5,11.4,30.07,South,184,0.0,0.0,91,0.00,,CLR,0.00,VWS V14.01,2013-01-05 05:00:00,
2013-01-04 23:04:00,13.3,11.2,30.08,South,184,0.0,0.0,91,0.00,,CLR,0.00,VWS V14.01,2013-01-05 05:04:00,
2013-01-04 23:06:00,13.3,11.2,30.08,South,184,0.0,0.0,91,0.00,,CLR,0.00,VWS V14.01,2013-01-05 05:06:00,
2013-01-04 23:12:00,13.1,11.0,30.08,South,184,0.0,0.0,91,0.00,,CLR,0.00,VWS V14.01,2013-01-05 05:12:00,
2013-01-04 23:14:00,13.0,10.9,30.08,South,184,0.0,0.0,91,0.00,,CLR,0.00,VWS V14.01,2013-01-05 05:14:00,
2013-01-04 23:19:00,13.0,10.9,30.08,South,184,0.0,0.0,91,0.00,,CLR,0.00,VWS V14.01,2013-01-05 05:19:00,
2013-01-04 23:25:00,12.8,10.7,30.08,South,184,0.0,0.0,91,0.00,,CLR,0.00,VWS V14.01,2013-01-05 05:25:00,
2013-01-04 23:30:00,12.8,10.7,30.07,South,184,0.0,0.0,91,0.00,,CLR,0.00,VWS V14.01,2013-01-05 05:30:00,
2013-01-04 23:35:00,12.7,10.6,30.07,South,184,0.0,0.0,91,0.00,,CLR,0.00,VWS V14.01,2013-01-05 05:35:00,
2013-01-04 23:40:00,12.7,10.6,30.07,South,184,0.0,0.0,91,0.00,,CLR,0.00,VWS V14.01,2013-01-05 05:40:00,
2013-01-04 23:45:00,12.6,10.5,30.07,South,184,0.0,0.0,91,0.00,,CLR,0.00,VWS V14.01,2013-01-05 05:45:00,
2013-01-04 23:51:00,12.5,10.4,30.07,South,184,0.0,0.0,91,0.00,,CLR,0.00,VWS V14.01,2013-01-05 05:51:00,
2013-01-04 23:56:00,12.3,10.2,30.06,South,184,0.0,0.0,91,0.00,,CLR,0.00,VWS V14.01,2013-01-05 05:56:00,